TimeCST,TemperatureF,Dew PointF,Humidity,Sea Level PressureIn,VisibilityMPH,Wind Direction,Wind SpeedMPH,Gust SpeedMPH,PrecipitationIn,Events,Conditions,WindDirDegrees,DateUTC
12:11 AM,24.8,21.2,86,2.99,5.0,SE,13.8,-,N/A,,Overcast,130,2013-03-05 06:11:00
12:31 AM,24.8,21.2,86,29.90,-9999.0,ESE,11.5,-,N/A,,Overcast,120,2013-03-05 06:31:00
12:43 AM,32.0,21.2,64,29.91,4.0,ESE,9.2,-,N/A,Snow,Light Snow,120,2013-03-05 06:43:00
1:11 AM,24.8,21.2,86,29.91,4.0,ESE,13.8,-,N/A,Snow,Light Snow,110,2013-03-05 07:11:00
1:31 AM,24.8,21.2,86,29.92,2.0,ESE,10.4,-,N/A,Snow,Light Snow,120,2013-03-05 07:31:00
1:51 AM,24.8,21.2,86,29.92,2.0,ESE,9.2,-,N/A,Snow,Light Snow,120,2013-03-05 07:51:00
2:31 AM,24.8,21.2,86,29.92,1.8,East,10.4,-,N/A,Snow,Light Snow,100,2013-03-05 08:31:00
2:51 AM,24.8,21.2,86,29.92,2.0,East,9.2,-,N/A,Snow,Light Snow,100,2013-03-05 08:51:00
3:11 AM,24.8,21.2,86,29.92,2.0,East,6.9,-,0.01,Snow,Light Snow,100,2013-03-05 09:11:00
3:31 AM,23.0,21.2,93,29.93,2.5,East,5.8,-,0.01,,Overcast,90,2013-03-05 09:31:00
3:51 AM,23.0,21.2,93,29.93,2.5,East,6.9,-,0.01,Snow,Light Snow,80,2013-03-05 09:51:00
4:11 AM,23.0,21.2,93,29.94,1.8,ENE,6.9,-,N/A,Snow,Light Snow,70,2013-03-05 10:11:00
4:31 AM,23.0,21.2,93,29.95,1.5,ENE,5.8,-,N/A,Snow,Light Snow,60,2013-03-05 10:31:00
4:51 AM,23.0,21.2,93,29.96,1.2,NE,6.9,-,N/A,Snow,Light Snow,50,2013-03-05 10:51:00
5:11 AM,23.0,21.2,93,29.97,1.2,NNE,8.1,-,N/A,Snow,Light Snow,30,2013-03-05 11:11:00
5:31 AM,23.0,21.2,93,29.98,1.5,North,9.2,-,N/A,Snow,Light Snow,10,2013-03-05 11:31:00
5:51 AM,23.0,21.2,93,29.99,1.8,North,10.4,-,0.01,Snow,Light Snow,360,2013-03-05 11:51:00
6:11 AM,23.0,21.2,93,30.00,2.5,North,12.7,-,N/A,Snow,Light Snow,360,2013-03-05 12:11:00
6:51 AM,21.2,19.4,93,30.02,4.0,North,12.7,-,N/A,Snow,Light Snow,360,2013-03-05 12:51:00
7:11 AM,21.2,21.2,100,30.03,3.0,North,13.8,-,N/A,Snow,Light Snow,360,2013-03-05 13:11:00
7:31 AM,23.0,21.2,93,30.04,1.8,North,12.7,-,N/A,Snow,Light Snow,360,2013-03-05 13:31:00
7:51 AM,23.0,21.2,93,30.05,3.0,North,11.5,-,N/A,Snow,Light Snow,350,2013-03-05 13:51:00
8:11 AM,23.0,21.2,93,30.06,2.0,North,12.7,-,N/A,Snow,Light Snow,350,2013-03-05 14:11:00
8:31 AM,24.8,21.2,86,30.07,2.0,NNW,13.8,-,N/A,Snow,Light Snow,340,2013-03-05 14:31:00
8:51 AM,24.8,21.2,86,30.08,1.8,NNW,12.7,-,N/A,Snow,Light Snow,340,2013-03-05 14:51:00
9:11 AM,24.8,21.2,86,30.08,1.5,NNW,13.8,-,N/A,Snow,Light Snow,340,2013-03-05 15:11:00
9:31 AM,24.8,21.2,86,30.09,1.2,NNW,15.0,-,N/A,Snow,Light Snow,340,2013-03-05 15:31:00
9:51 AM,24.8,21.2,86,30.10,2.0,NNW,13.8,-,N/A,,Overcast,340,2013-03-05 15:51:00
10:11 AM,26.6,21.2,80,30.11,4.0,NNW,16.1,-,N/A,,Mostly Cloudy,340,2013-03-05 16:11:00
10:31 AM,26.6,23.0,86,30.11,3.0,NNW,18.4,-,N/A,,Mostly Cloudy,340,2013-03-05 16:31:00
10:51 AM,26.6,21.2,80,30.13,3.0,NNW,19.6,-,N/A,,Mostly Cloudy,330,2013-03-05 16:51:00
11:11 AM,26.6,21.2,80,30.13,3.0,NNW,19.6,-,N/A,Snow,Light Snow,340,2013-03-05 17:11:00
11:31 AM,26.6,21.2,80,30.14,5.0,NNW,20.7,-,N/A,,Clear,340,2013-03-05 17:31:00
11:51 AM,26.6,21.2,80,30.14,7.0,NNW,20.7,-,N/A,,Scattered Clouds,340,2013-03-05 17:51:00
12:11 PM,26.6,21.2,80,30.15,5.0,NNW,19.6,-,N/A,,Haze,340,2013-03-05 18:11:00
12:31 PM,26.6,21.2,80,30.15,5.0,NNW,19.6,-,N/A,,Haze,330,2013-03-05 18:31:00
12:51 PM,26.6,21.2,80,30.16,5.0,NNW,21.9,25.3,N/A,,Haze,330,2013-03-05 18:51:00
1:11 PM,26.6,21.2,80,30.17,2.5,NNW,20.7,-,N/A,,Overcast,330,2013-03-05 19:11:00
1:31 PM,26.6,21.2,80,30.17,2.5,NNW,21.9,28.8,N/A,,Overcast,330,2013-03-05 19:31:00
1:51 PM,24.8,21.2,86,30.18,2.0,NNW,24.2,31.1,N/A,,Overcast,330,2013-03-05 19:51:00
2:11 PM,24.8,21.2,86,30.18,2.0,NNW,21.9,28.8,N/A,,Overcast,340,2013-03-05 20:11:00
2:31 PM,26.6,21.2,80,30.19,4.0,NNW,21.9,-,N/A,,Overcast,330,2013-03-05 20:31:00
2:51 PM,26.6,21.2,80,30.19,3.0,NNW,23.0,-,N/A,,Haze,340,2013-03-05 20:51:00
3:11 PM,26.6,21.2,80,30.20,5.0,NNW,23.0,-,N/A,,Haze,330,2013-03-05 21:11:00
3:31 PM,24.8,21.2,86,30.21,5.0,NNW,23.0,-,N/A,,Mostly Cloudy,330,2013-03-05 21:31:00
3:51 PM,24.8,19.4,80,30.21,7.0,NNW,21.9,26.5,N/A,,Mostly Cloudy,330,2013-03-05 21:51:00
4:11 PM,24.8,19.4,80,30.22,7.0,NNW,20.7,-,N/A,,Scattered Clouds,330,2013-03-05 22:11:00
4:31 PM,23.0,19.4,86,30.23,10.0,NNW,20.7,-,N/A,,Mostly Cloudy,330,2013-03-05 22:31:00
4:51 PM,23.0,19.4,86,30.24,10.0,NNW,19.6,27.6,N/A,,Overcast,330,2013-03-05 22:51:00
5:11 PM,21.2,19.4,93,30.25,10.0,NNW,20.7,25.3,N/A,,Mostly Cloudy,330,2013-03-05 23:11:00
5:31 PM,21.2,17.6,86,30.26,10.0,NNW,20.7,27.6,N/A,,Clear,330,2013-03-05 23:31:00
5:51 PM,19.4,17.6,93,30.27,10.0,NNW,19.6,25.3,N/A,,Clear,330,2013-03-05 23:51:00
6:11 PM,19.4,15.8,86,30.27,10.0,NNW,18.4,-,N/A,,Clear,330,2013-03-06 00:11:00
6:31 PM,19.4,15.8,86,30.28,10.0,NNW,16.1,-,N/A,,Clear,330,2013-03-06 00:31:00
6:51 PM,19.4,15.8,86,30.28,10.0,NNW,15.0,-,N/A,,Clear,330,2013-03-06 00:51:00
7:11 PM,17.6,15.8,93,30.29,10.0,NW,17.3,-,N/A,,Clear,320,2013-03-06 01:11:00
7:31 PM,17.6,15.8,93,30.29,10.0,NW,17.3,-,N/A,,Clear,320,2013-03-06 01:31:00
7:51 PM,17.6,15.8,93,30.30,10.0,NW,17.3,-,N/A,,Clear,320,2013-03-06 01:51:00
8:11 PM,17.6,15.8,93,30.31,10.0,NW,17.3,-,N/A,,Clear,320,2013-03-06 02:11:00
8:31 PM,17.6,15.8,93,30.30,10.0,NW,16.1,-,N/A,,Clear,320,2013-03-06 02:31:00
8:51 PM,19.4,15.8,86,30.30,10.0,NNW,16.1,-,N/A,,Mostly Cloudy,330,2013-03-06 02:51:00
9:11 PM,19.4,17.6,93,30.32,10.0,NNW,12.7,-,N/A,,Overcast,330,2013-03-06 03:11:00
9:31 PM,19.4,17.6,93,30.33,10.0,NW,13.8,-,N/A,,Overcast,320,2013-03-06 03:31:00
9:51 PM,19.4,17.6,93,30.33,10.0,NW,12.7,-,N/A,,Overcast,320,2013-03-06 03:51:00
10:11 PM,19.4,17.6,93,30.33,10.0,NW,13.8,-,N/A,,Overcast,320,2013-03-06 04:11:00
10:31 PM,19.4,17.6,93,30.33,10.0,NW,13.8,-,N/A,,Overcast,320,2013-03-06 04:31:00
10:51 PM,19.4,17.6,93,30.33,10.0,NW,16.1,-,N/A,,Overcast,320,2013-03-06 04:51:00
11:11 PM,19.4,17.6,93,30.33,10.0,NW,16.1,-,N/A,,Overcast,320,2013-03-06 05:11:00
11:31 PM,19.4,17.6,93,30.34,10.0,NW,15.0,-,N/A,,Overcast,320,2013-03-06 05:31:00
11:51 PM,19.4,15.8,86,30.34,10.0,NW,16.1,-,N/A,,Overcast,320,2013-03-06 05:51:00